CAPE
0 0 0 0 0 0 0 0 0 0 0 0 0 8 9 8 5 1 0 0 0 0 0 0 0 0 0 0 0 0 0 6 8 4 3 3 10 3 3 588 765 633 575 286
0 0 0 0 0 0 0 0 0 0 0 0 0 30 11 15 16 12 7 0 0 0 0 0 0 0 0 0 0 0 5 7 9 11 8 12 8 4 7 1 789 680 576 532
0 0 0 0 0 0 0 0 0 0 0 0 0 20 20 8 15 11 11 8 4 0 0 0 0 0 0 0 0 0 3 9 9 8 11 8 3 6 7 6 249 831 742 502
0 0 0 0 0 0 0 0 0 0 0 43 0 30 8 13 20 13 15 9 10 9 2 0 0 0 0 0 0 1 3 7 5 9 12 11 14 11 14 9 7 15 731 544
0 0 0 0 0 0 0 0 0 17 37 25 33 45 14 10 18 13 10 8 4 7 12 8 4 0 0 0 0 2 5 6 10 7 12 17 12 14 13 11 7 6 700 596
0 0 0 0 0 0 0 0 3 59 72 41 3 60 36 29 23 14 8 7 8 3 3 6 6 5 2 0 0 0 4 8 10 10 8 14 12 11 11 10 8 8 21 473
0 0 0 0 0 0 0 4 11 20 67 67 4 25 23 13 8 6 4 2 3 5 3 1 3 3 6 1 0 0 1 8 12 13 12 9 19 14 12 13 11 8 9 30
0 0 0 0 0 0 1 18 58 32 80 59 1 17 38 0 2 2 1 3 1 2 3 3 2 1 0 1 1 1 4 3 14 14 18 10 13 21 18 14 10 10 16 10
0 0 0 0 0 0 6 15 30 33 50 65 23 14 6 10 5 3 3 2 2 1 1 1 2 2 1 1 6 4 6 4 12 14 14 14 16 17 17 11 15 13 14 9
0 0 0 0 0 0 0 6 34 64 45 50 41 5 33 6 11 8 7 7 4 3 2 1 1 2 0 0 4 11 8 8 10 11 13 11 13 17 19 14 12 9 10 7
0 0 0 0 0 2 7 27 34 41 35 59 58 70 0 4 23 19 14 8 8 8 9 4 4 4 0 0 2 8 10 9 10 12 11 15 12 10 15 18 17 15 7 8
0 0 0 0 0 0 2 22 29 59 22 31 53 45 0 4 15 18 21 16 13 14 15 11 8 7 1 0 2 5 12 13 12 10 12 15 17 8 10 6 18 15 13 9
0 0 0 0 0 0 12 19 20 26 29 30 44 25 0 9 1 8 22 22 23 23 24 19 13 11 2 1 4 8 10 17 17 12 12 11 16 15 9 9 21 15 16 7
0 0 0 0 0 0 3 13 13 4 33 13 18 11 2 2 0 4 13 21 40 28 32 27 23 16 8 4 4 7 15 25 22 21 17 14 10 14 15 14 16 17 9 10
0 0 0 0 0 0 0 7 11 18 11 10 8 0 12 8 3 4 21 47 34 18 24 28 33 21 14 6 8 12 20 26 27 26 24 17 9 13 13 12 24 19 9 13
0 0 0 0 0 0 0 0 2 10 14 0 0 4 75 17 26 82 71 77 47 37 43 35 26 21 20 12 11 13 13 20 26 28 30 20 8 11 11 11 23 18 17 11
0 0 0 0 0 0 0 0 0 0 14 2 10 14 37 6 5 90 80 55 90 55 47 37 28 24 20 16 16 20 13 15 12 28 32 23 13 8 11 10 12 12 16 12
0 0 0 0 0 0 0 0 0 0 0 6 12 20 35 35 40 46 32 36 61 34 40 29 30 29 21 16 19 17 13 13 12 21 29 27 16 6 12 10 11 18 17 19
0 0 0 0 0 0 0 0 0 0 0 1 0 1 17 28 32 24 19 31 35 27 21 24 26 23 19 16 16 16 20 21 18 23 31 29 21 9 14 10 9 16 10 20
0 0 0 0 0 0 0 0 0 0 2 0 1 8 18 20 47 32 18 37 14 11 13 18 19 17 12 14 17 20 22 24 28 27 28 29 23 18 13 14 7 19 12 16
0 0 0 0 0 0 0 0 0 0 0 0 0 7 11 28 55 31 19 10 6 8 9 12 12 12 14 16 20 11 17 28 25 26 29 30 27 23 21 18 6 16 16 13
0 0 0 0 0 0 0 0 0 0 0 0 0 3 10 26 17 17 6 3 3 6 7 10 11 9 14 17 14 12 14 14 13 18 23 26 29 25 27 28 20 16 29 12
0 0 0 0 0 0 0 0 0 0 0 0 0 1 5 3 7 1 1 1 2 6 11 8 7 10 16 12 8 11 9 4 14 9 10 21 25 29 34 35 14 38 25 24
0 0 0 0 0 0 0 0 0 0 0 0 0 0 0 1 0 0 0 0 5 7 7 8 10 11 14 9 9 10 9 7 9 8 4 11 17 19 26 28 27 40 26 30
0 0 0 0 0 0 0 0 0 0 0 0 0 0 0 0 0 0 0 4 5 5 7 9 7 15 12 7 8 8 5 4 5 3 3 11 16 16 23 19 33 38 32 7
0 0 0 0 0 0 0 0 0 0 0 0 0 0 0 0 0 0 2 5 3 4 6 9 15 8 6 6 4 2 5 7 8 5 5 6 16 19 12 20 23 2 0 0
CIN
0 0 0 0 0 0 0 0 0 0 0 0 0 0 0 0 0 0 0 0 0 0 0 0 0 0 0 0 0 0 0 0 0 0 0 0 0 0 0 -31 0 0 0 -1
0 0 0 0 0 0 0 0 0 0 0 0 0 0 -1 0 0 0 0 0 0 0 0 0 0 0 0 0 0 0 0 0 0 0 0 0 0 0 0 0 -1 -1 0 -1
0 0 0 0 0 0 0 0 0 0 0 0 0 0 0 -1 0 0 0 0 0 0 0 0 0 0 0 0 0 0 0 0 0 0 0 0 0 0 0 0 -1 0 0 -1
0 0 0 0 0 0 0 0 0 0 0 0 -1 -3 0 0 0 0 0 0 0 0 0 0 0 0 0 0 0 0 0 0 0 0 0 0 0 0 0 0 0 -46 0 -3
0 0 0 0 0 0 0 0 0 0 0 -2 0 0 0 0 0 0 0 0 0 0 0 0 0 0 0 0 0 0 0 0 0 0 0 0 0 0 0 0 0 0 0 0
0 0 0 0 0 0 0 0 0 0 0 -2 -1 -1 0 0 0 0 0 0 0 0 0 0 0 0 0 0 0 0 0 0 0 0 0 0 0 0 0 0 0 0 -40 0
0 0 0 0 0 0 0 0 0 0 -1 0 0 0 0 0 0 0 0 0 0 0 0 0 0 0 0 0 0 0 0 0 0 0 0 0 0 0 0 0 0 0 0 -18
0 0 0 0 0 0 0 0 0 0 0 0 0 0 0 0 0 0 0 0 0 0 0 0 0 0 0 0 0 0 0 0 0 0 0 0 0 0 0 0 0 0 0 0
0 0 0 0 0 0 0 0 0 0 -1 0 0 0 0 0 0 0 0 0 0 0 0 0 0 0 0 0 0 0 0 0 0 0 0 0 0 0 0 0 0 0 0 0
0 0 0 0 0 0 0 0 0 0 0 0 -3 -1 0 0 0 0 0 0 0 0 0 0 0 0 0 0 0 0 0 0 0 0 0 0 0 0 0 0 0 0 0 0
0 0 0 0 0 0 0 0 0 0 -1 0 0 0 0 0 0 0 0 0 0 0 0 0 0 0 0 0 0 0 0 0 0 0 0 0 0 0 0 0 0 0 0 0
0 0 0 0 0 0 0 0 0 0 0 0 0 0 0 0 0 0 0 0 0 0 0 0 0 0 0 0 0 0 0 0 0 0 0 0 0 0 0 0 0 0 0 0
0 0 0 0 0 -1 0 0 0 0 0 -1 0 0 0 0 -1 0 0 0 0 0 0 0 0 0 0 0 0 0 0 0 0 0 0 0 0 0 0 0 0 0 0 0
0 0 0 0 0 0 0 0 0 0 0 -2 -1 0 0 -1 0 -5 -2 -5 0 0 0 0 0 0 0 0 0 0 0 0 0 0 0 0 0 0 0 0 0 0 0 0
0 0 0 0 0 0 0 0 0 0 0 0 -1 -1 -6 -7 -5 -19 -15 -1 0 0 0 0 0 0 0 0 0 0 0 0 0 0 0 0 0 0 0 0 0 0 0 0
0 0 0 0 0 0 0 0 0 0 0 0 -1 -1 -1 0 0 0 -2 -1 -1 0 0 0 0 0 0 0 0 0 0 0 0 0 0 0 0 0 0 0 0 0 0 0
0 0 0 0 0 0 0 0 0 0 0 -1 0 0 0 -14 -5 -1 -2 -2 0 0 0 0 0 0 0 0 0 0 0 0 0 0 0 0 0 0 0 0 0 0 0 0
0 0 0 0 0 0 0 0 0 0 0 0 -10 -6 0 0 -1 0 0 0 0 0 0 0 0 0 0 0 0 0 0 0 0 0 0 0 0 0 0 0 0 0 0 0
0 0 0 0 0 0 0 0 0 0 0 0 0 -1 -1 0 0 0 -1 0 0 0 0 0 0 0 0 0 0 0 0 0 0 0 0 0 0 0 0 0 0 0 0 0
0 0 0 0 0 0 0 0 0 0 0 0 0 0 0 0 0 0 0 0 0 0 0 0 0 0 0 0 0 0 0 0 0 0 0 0 0 0 0 0 0 0 0 0
0 0 0 0 0 0 0 0 0 0 0 0 0 0 0 0 0 0 0 0 0 0 0 0 0 0 0 0 0 0 0 0 0 0 0 0 0 0 0 0 0 0 -1 0
0 0 0 0 0 0 0 0 0 0 0 0 0 0 0 0 0 0 0 0 0 0 0 0 0 0 0 0 0 0 0 0 0 0 0 0 0 0 0 0 0 0 0 0
0 0 0 0 0 0 0 0 0 0 0 0 0 0 0 0 0 0 0 0 0 0 0 0 0 0 0 0 0 0 0 0 0 0 0 0 0 0 0 0 0 0 0 0
0 0 0 0 0 0 0 0 0 0 0 0 0 0 0 0 0 0 0 0 0 0 0 0 0 0 0 0 0 0 0 0 0 0 0 0 0 -1 0 0 0 0 0 0
0 0 0 0 0 0 0 0 0 0 0 0 0 0 0 0 0 0 0 0 0 0 0 0 0 0 0 0 0 0 0 0 0 0 0 0 0 0 0 0 0 0 0 0
0 0 0 0 0 0 0 0 0 0 0 0 0 0 0 0 0 0 0 0 0 0 0 0 0 0 0 0 0 0 0 0 0 0 0 0 0 0 0 0 0 -3 0 0
Wind_Speed
19 19 20 18 13 7 10 14 15 13 5 12 2 2 7 14 16 18 18 17 18 19 17 20 20 20 20 18 18 19 19 19 15 13 14 11 11 11 8 7 9 10 9 11
6 21 14 9 12 12 10 11 13 11 8 10 4 9 13 12 15 16 18 18 18 19 19 19 21 21 20 20 19 19 18 18 15 12 11 9 11 9 11 8 8 10 12 12
18 11 9 8 11 15 10 14 18 18 14 12 7 8 8 9 13 14 16 18 17 18 19 19 20 20 20 20 20 19 19 18 16 18 12 11 10 8 7 8 8 11 13 11
11 11 14 12 15 13 13 20 20 15 8 2 1 4 11 10 13 15 16 16 19 19 17 18 19 20 20 20 18 19 19 17 16 18 15 16 9 11 10 9 10 14 13 11
5 8 14 14 17 12 15 22 20 8 5 6 2 5 11 14 16 17 17 18 16 18 19 18 18 18 19 19 18 18 19 18 17 17 16 12 13 9 10 10 14 16 10 13
8 6 7 15 15 6 19 23 8 8 7 2 8 9 11 10 13 16 17 18 18 18 17 18 18 17 18 19 18 18 20 19 18 16 17 16 15 15 11 12 10 10 11 7
6 12 7 16 15 13 18 19 8 3 2 8 7 3 6 10 11 12 15 15 17 18 17 18 19 18 18 20 19 18 20 20 19 18 16 17 15 14 15 14 10 13 10 8
9 4 15 14 10 15 16 15 9 11 10 4 6 4 6 5 10 11 13 14 14 16 16 17 18 18 19 19 19 20 20 20 20 19 18 14 16 9 10 11 10 9 9 10
9 6 7 9 6 12 11 14 11 7 7 7 5 5 8 6 12 13 14 15 15 16 16 17 18 18 19 18 19 19 20 19 19 19 16 15 15 15 12 14 12 9 11 11
6 4 6 5 7 7 7 7 11 7 7 12 4 3 8 11 14 14 15 15 16 17 17 18 18 19 18 18 17 18 18 18 19 19 16 14 15 15 13 12 14 13 12 13
3 5 9 4 6 9 9 9 7 5 3 8 8 5 3 7 11 12 15 16 17 17 18 18 18 18 19 19 18 17 17 18 17 17 17 17 16 16 14 11 13 15 15 16
5 4 9 4 5 1 3 7 7 8 12 6 6 1 5 5 10 12 13 16 17 17 17 17 18 19 19 19 18 18 17 17 17 17 17 16 16 16 15 15 15 14 15 13
4 3 8 5 9 6 7 8 7 9 4 6 10 4 4 6 10 12 13 14 17 17 18 17 17 18 18 18 18 17 17 17 16 17 17 17 17 16 15 16 16 15 15 14
4 2 3 7 9 12 8 9 6 3 9 9 8 11 11 12 10 11 12 13 15 17 18 17 16 17 18 17 17 17 17 17 17 16 16 17 17 17 15 15 16 16 16 14
5 7 6 9 11 10 9 9 9 8 10 9 13 13 14 14 11 11 12 13 15 16 18 16 16 17 17 18 16 16 16 17 17 16 16 16 17 16 16 15 15 16 15 14
4 7 9 11 5 8 9 8 10 10 11 11 15 17 6 10 11 10 12 12 13 14 17 16 17 18 17 18 16 15 16 16 17 16 16 16 16 16 16 16 15 16 15 14
5 6 7 4 3 7 8 3 7 9 10 10 14 15 12 15 15 12 13 13 12 14 17 17 17 18 17 16 16 15 15 15 15 16 15 16 16 16 16 15 16 16 16 15
6 7 4 7 7 5 5 2 5 8 13 12 14 14 12 11 11 15 13 12 14 15 14 15 16 17 18 15 14 14 14 14 14 14 15 15 15 16 16 16 16 16 14 13
9 5 5 4 8 12 5 5 5 7 14 13 7 6 9 11 13 15 13 17 16 16 14 14 16 18 16 14 14 14 13 13 12 14 15 15 15 16 16 16 15 14 14 13
7 7 5 4 6 5 3 4 1 3 7 3 6 9 11 8 11 10 17 17 16 15 14 14 17 16 14 14 13 13 13 14 14 14 14 14 14 14 14 15 12 13 13 13
6 7 9 8 7 8 3 7 5 6 6 7 10 11 10 9 9 16 16 16 15 14 16 16 15 13 13 12 12 12 12 13 14 15 15 13 14 13 13 13 9 11 12 12
6 5 5 4 5 8 12 9 7 5 7 10 11 11 11 11 12 14 15 15 14 15 16 15 13 12 12 11 12 12 13 14 13 14 14 13 13 11 10 12 11 12 12 12
6 7 3 7 4 5 14 9 6 9 11 11 11 11 10 12 13 14 13 13 13 14 13 12 12 12 11 12 11 11 12 13 15 14 14 14 14 12 11 10 10 9 10 11
7 9 7 4 7 16 13 12 10 8 9 9 8 8 8 11 12 11 11 12 11 12 12 12 12 12 12 11 12 12 13 14 15 14 13 12 12 15 11 9 9 8 10 11
5 10 10 12 14 8 11 12 8 6 5 4 4 7 8 9 10 11 11 10 10 11 10 10 11 11 11 12 13 13 14 15 14 13 12 11 9 11 12 11 8 9 10 8
11 11 8 5 6 7 5 9 6 7 5 3 5 6 5 6 9 9 8 8 9 9 10 10 10 10 12 13 13 13 13 13 13 12 9 8 9 8 8 8 8 4 3 4
Wind_Direction
39 55 31 28 34 357 314 316 316 352 28 330 354 8 30 22 13 3 6 6 1 2 355 358 357 357 356 1 357 356 354 354 350 351 348 342 329 324 304 257 203 200 194 188
81 47 25 34 19 349 337 329 342 314 252 328 318 58 49 30 19 10 358 359 0 359 358 0 357 357 358 0 0 355 358 354 350 352 343 330 314 304 297 282 218 210 216 203
63 34 12 8 21 347 337 351 331 313 305 267 245 92 57 55 32 17 8 353 358 1 356 360 359 358 356 1 2 355 356 356 352 349 348 339 330 331 319 352 299 220 216 205
54 38 14 22 11 346 322 340 316 306 281 271 15 132 60 21 31 26 8 7 355 355 1 1 1 359 358 0 359 358 356 357 354 351 349 349 338 330 326 312 304 303 213 200
62 30 21 19 357 344 336 314 303 307 243 204 76 246 57 33 8 6 4 359 3 353 352 358 2 0 360 359 360 358 358 358 357 354 350 347 340 326 319 322 322 323 228 206
69 91 27 3 342 13 338 329 251 215 178 157 6 290 66 14 4 355 359 356 353 356 353 354 357 357 0 358 358 357 358 1 356 353 351 346 340 333 334 333 325 331 316 205
154 51 59 7 352 353 9 356 338 304 304 35 2 18 43 357 355 352 350 355 351 349 355 357 359 358 355 354 355 355 356 358 357 352 353 345 343 336 334 333 328 326 322 319
356 5 11 358 13 329 10 9 10 309 345 12 111 37 94 353 350 357 353 349 349 348 352 354 358 358 353 352 352 356 353 353 358 354 347 349 342 337 332 330 332 320 315 312
345 75 8 26 4 3 341 11 312 284 251 274 84 134 211 325 353 354 354 348 350 350 351 353 353 357 354 353 351 353 350 350 353 353 350 349 342 340 335 332 327 329 309 316
27 315 62 48 319 34 0 358 344 338 325 319 115 195 16 350 345 349 350 350 349 352 353 352 353 355 351 352 347 347 350 347 348 349 348 349 346 341 339 335 333 331 325 313
342 304 1 212 25 359 8 11 332 271 357 317 322 62 127 348 335 340 346 349 351 350 351 350 351 352 348 348 346 343 345 345 346 345 347 345 348 347 339 341 333 334 329 329
18 315 320 9 149 7 343 341 0 335 349 338 272 12 41 333 337 345 346 346 346 348 348 348 347 348 347 346 345 343 343 343 343 341 343 346 346 350 349 342 341 334 330 327
18 6 312 155 172 204 8 324 319 323 225 298 297 38 357 349 339 339 340 345 337 337 349 346 344 346 345 344 342 343 341 345 344 338 340 346 348 348 347 351 340 339 334 335
270 290 326 324 307 311 306 320 306 286 281 336 296 320 319 326 321 317 318 323 322 337 340 341 339 343 343 342 339 342 340 342 342 339 340 346 347 346 348 351 345 344 340 338
283 293 320 296 294 316 294 287 286 273 270 272 317 301 298 303 304 302 302 306 322 330 333 334 335 339 342 340 338 339 340 338 338 338 341 345 344 345 351 354 347 342 348 345
202 288 310 291 19 312 285 261 265 266 253 251 269 273 299 284 292 314 310 313 320 323 327 324 332 335 342 338 336 335 337 335 334 335 338 342 344 345 353 355 346 349 351 356
263 299 317 293 322 289 248 217 267 264 248 243 275 305 319 308 308 305 305 299 313 318 325 327 328 336 340 338 333 337 331 327 333 332 337 341 344 343 351 358 350 354 352 2
260 271 288 294 306 258 87 270 224 266 280 273 248 273 292 297 282 289 305 312 333 322 318 322 333 333 336 335 336 334 331 333 333 334 337 340 345 343 347 357 355 352 352 0
228 272 291 280 300 282 278 195 227 272 295 293 320 337 302 306 303 295 353 342 328 325 331 333 332 333 332 339 339 335 334 337 339 341 337 338 345 345 345 356 355 348 355 359
204 246 257 271 293 270 68 158 207 279 254 87 293 307 314 324 301 328 332 325 326 337 333 332 332 333 339 342 342 343 347 349 346 342 336 340 344 344 349 351 356 347 357 0
201 222 239 248 255 271 215 159 180 250 35 330 307 311 317 316 304 305 317 324 338 334 332 336 333 340 342 344 348 353 351 353 342 337 336 346 348 344 352 349 8 349 357 0
223 204 207 216 250 265 151 157 223 353 310 305 310 312 316 305 304 313 327 333 333 334 334 337 337 341 342 352 354 352 348 348 345 342 340 347 350 352 347 358 5 5 359 360
238 217 267 223 242 115 189 234 256 277 288 299 301 311 311 308 317 326 328 331 336 333 337 340 337 335 347 4 350 339 351 342 336 347 348 347 346 353 352 360 6 6 8 7
228 219 237 261 234 235 217 232 255 265 283 301 307 311 309 315 323 328 330 333 335 339 343 340 336 340 347 354 329 339 344 341 334 341 341 347 354 345 353 2 6 11 18 7
260 163 228 246 258 242 239 225 243 260 265 273 287 311 318 319 327 332 330 337 337 340 344 342 344 346 340 332 339 338 344 337 333 335 336 347 352 352 349 353 9 9 29 16
195 203 198 240 183 209 143 181 193 218 219 262 299 306 326 322 328 338 336 341 344 342 345 354 354 339 338 337 342 347 343 340 334 332 337 349 333 354 355 348 349 30 35 357